This demonstration page uses our WeatherBlox Daily Observations layout. Learn more.

Hourly Observations for October 11, 2019

Temp ( °F °C ) Dew Point ( °F °C ) Humidity (%) Winds ( mph kmh ) Pressure ( in mb ) Visibility ( mi km ) Precip ( " mm )
12:12 am 00:12 Cloudy 38 3.3 29 -1.7 70 70 NW 17 28 30.15 1021 10 16.09344 0 0
12:54 am 00:54 Cloudy 37 2.8 28 -2.2 70 70 NW 16 26 30.09 1019 10 16.09344 0 0
1:22 am 01:22 Cloudy 37 2.8 27 -2.8 67 67 WNW 20 31 30.15 1021 10 16.09344 0 0
1:32 am 01:32 Cloudy 37 2.8 27 -2.8 67 67 WNW 18 30 30.15 1021 10 16.09344 0 0
1:44 am 01:44 Cloudy 37 2.8 27 -2.8 67 67 WNW 16 26 30.18 1022 10 16.09344 0 0
1:54 am 01:54 Cloudy 37 2.8 26 -3.3 65 65 WNW 20 31 30.12 1020 10 16.09344 0 0
2:54 am 02:54 Cloudy 37 2.8 26 -3.3 65 65 WNW 15 24 30.12 1020 10 16.09344 0 0
3:54 am 03:54 Cloudy 37 2.8 25 -3.9 62 62 WNW 20 31 30.12 1020 10 16.09344 0 0
4:54 am 04:54 Cloudy 37 2.8 25 -3.9 62 62 WNW 17 28 30.15 1021 10 16.09344 0 0
5:54 am 05:54 Cloudy 36 2.2 25 -3.9 64 64 WNW 18 30 30.15 1021 10 16.09344 0 0
6:54 am 06:54 Cloudy 36 2.2 24 -4.4 62 62 WNW 17 28 30.18 1022 10 16.09344 0 0
7:54 am 07:54 Cloudy 36 2.2 23 -5 59 59 WNW 15 24 30.18 1022 10 16.09344 0 0
8:54 am 08:54 Cloudy 36 2.2 22 -5.6 57 57 WNW 14 22 30.21 1023 10 16.09344 0 0
9:54 am 09:54 Partly Cloudy 37 2.8 20 -6.7 50 50 WNW 21 33 30.21 1023 10 16.09344 0 0
10:54 am 10:54 Partly Cloudy 38 3.3 21 -6.1 51 51 WNW 16 26 30.21 1023 10 16.09344 0 0
11:54 am 11:54 Cloudy 40 4.4 22 -5.6 49 49 WNW 20 31 30.21 1023 10 16.09344 0 0
12:54 pm 12:54 Mostly Cloudy 40 4.4 21 -6.1 47 47 WNW 20 31 30.21 1023 10 16.09344 0 0
1:54 pm 13:54 Mostly Cloudy 43 6.1 20 -6.7 40 40 WNW 23 37 30.21 1023 10 16.09344 0 0
2:54 pm 14:54 Cloudy 44 6.7 20 -6.7 38 38 WNW 16 26 30.18 1022 10 16.09344 0 0
3:54 pm 15:54 Cloudy 43 6.1 20 -6.7 40 40 WNW 15 24 30.18 1022 10 16.09344 0 0
4:54 pm 16:54 Cloudy 43 6.1 20 -6.7 40 40 WNW 15 24 30.18 1022 10 16.09344 0 0
5:54 pm 17:54 Mostly Sunny 43 6.1 21 -6.1 42 42 WNW 12 19 30.18 1022 10 16.09344 0 0
6:54 pm 18:54 Clear 42 5.6 19 -7.2 40 40 W 13 20 30.18 1022 10 16.09344 0 0
7:54 pm 19:54 Clear 39 3.9 21 -6.1 48 48 W 9 15 30.18 1022 10 16.09344 0 0
8:54 pm 20:54 Clear 37 2.8 23 -5 57 57 W 9 15 30.18 1022 10 16.09344 0 0
9:54 pm 21:54 Clear 35 1.7 23 -5 61 61 WSW 6 9 30.18 1022 10 16.09344 0 0
10:54 pm 22:54 Clear 33 0.6 23 -5 66 66 SW 6 9 30.18 1022 10 16.09344 0 0
11:54 pm 23:54 Clear 32 0 23 -5 69 69 WSW 3 6 30.15 1021 10 16.09344 0 0

Powered by AerisWeather